College Station, TX

9:01 AM CST on January 17, 2017 (GMT -0600)
Easterwood

Weather History for KCLL - January, 2013

Change the Weather History Date:

Monday, January 28, 2013

  Actual Average Record
Temperature  
Mean Temperature 76 °F 52 °F  
Max Temperature 82 °F 62 °F 82 °F (2013)
Min Temperature 69 °F 42 °F 20 °F (1902)
Degree Days  
Heating Degree Days 0 14  
Month to date heating degree days 336 405  
Since 1 July heating degree days 820 1041  
Cooling Degree Days 11 0  
Month to date cooling degree days 24 0  
Year to date cooling degree days 24 0  
Growing Degree Days 26 (Base 50)    
Moisture  
Dew Point 65 °F    
Average Humidity 69    
Maximum Humidity 90    
Minimum Humidity 47    
Precipitation  
Precipitation T in 0.11 in 1.59 in (1922)
Month to date precipitation 4.89 2.94  
Year to date precipitation 4.89 2.94  
Sea Level Pressure  
Sea Level Pressure 30.01 in    
Wind  
Wind Speed 16 mph (South)    
Max Wind Speed 25 mph    
Max Gust Speed 33 mph    
Visibility 10 miles    
Events Rain    
T = Trace of Precipitation, MM = Missing Value Source: NWS Daily Summary

Daily Weather History Graph

Daily Weather History Graph

Search for Another Location

Airport or City:

Trip Planner

Search our weather history database for the weather conditions in past years. The results will help you decide how hot, cold, wet, or windy it might be!

Date:

Astronomy

Jan. 28, 2013 Rise Set
Actual Time 7:18 AM CST 5:58 PM CST
Civil Twilight 6:53 AM CST 6:23 PM CST
Nautical Twilight 6:24 AM CST 6:52 PM CST
Astronomical Twilight 5:55 AM CST 7:21 PM CST
Moon 7:42 PM CST (1/28) 7:54 AM CST (1/28)
Length of Visible Light 11h 30m
Length of Day
10h 39m
Full, 98% of the Moon is Illuminated
Jan 28
Full
Feb 3
Last Quarter
Feb 10
New
Feb 17
First Quarter
Feb 25
Full

Hourly Weather History & Observations

Time (CST) Temp. Heat Index Dew Point Humidity Pressure Visibility Wind Dir Wind Speed Gust Speed Precip Events Conditions
12:53 AM 71.1 °F - 64.0 °F 78% 30.04 in 10.0 mi South 18.4 mph 25.3 mph N/A   Overcast
1:53 AM 71.1 °F - 64.0 °F 78% 30.04 in 10.0 mi South 18.4 mph 24.2 mph N/A   Overcast
2:08 AM 71.6 °F - 64.4 °F 78% 30.05 in 10.0 mi South 16.1 mph - N/A   Overcast
2:53 AM 71.1 °F - 64.0 °F 78% 30.04 in 10.0 mi South 15.0 mph 24.2 mph N/A   Overcast
3:28 AM 69.8 °F - 64.4 °F 83% 30.05 in 10.0 mi South 12.7 mph - N/A   Overcast
3:53 AM 70.0 °F - 64.9 °F 84% 30.04 in 10.0 mi South 13.8 mph - 0.00 in   Overcast
4:28 AM 69.8 °F - 64.4 °F 83% 30.04 in 9.0 mi South 11.5 mph - 0.00 in Rain Light Rain
4:53 AM 70.0 °F - 66.0 °F 87% 30.03 in 9.0 mi South 12.7 mph - 0.00 in Rain Light Rain
5:53 AM 69.8 °F - 66.2 °F 88% 30.04 in 10.0 mi SSE 11.5 mph - N/A   Overcast
6:01 AM 69.8 °F - 66.2 °F 88% 30.04 in 10.0 mi South 10.4 mph - 0.00 in Rain Light Rain
6:22 AM 69.8 °F - 66.2 °F 88% 30.05 in 8.0 mi South 9.2 mph - 0.00 in   Overcast
6:40 AM 69.8 °F - 66.2 °F 88% 30.05 in 10.0 mi South 9.2 mph - 0.00 in   Overcast
6:53 AM 69.1 °F - 66.0 °F 90% 30.04 in 10.0 mi South 11.5 mph - 0.00 in   Overcast
7:37 AM 69.8 °F - 66.2 °F 88% 30.06 in 9.0 mi SSE 12.7 mph - 0.00 in   Overcast
7:53 AM 69.1 °F - 66.9 °F 93% 30.05 in 9.0 mi SSE 12.7 mph - 0.00 in   Overcast
8:53 AM 70.0 °F - 66.0 °F 87% 30.06 in 10.0 mi South 15.0 mph - N/A   Overcast
9:28 AM 71.6 °F - 66.2 °F 83% 30.07 in 10.0 mi South 16.1 mph 21.9 mph N/A   Overcast
9:53 AM 72.0 °F - 66.0 °F 81% 30.06 in 10.0 mi South 15.0 mph - N/A   Overcast
10:53 AM 73.9 °F - 66.0 °F 76% 30.06 in 10.0 mi SSE 18.4 mph 24.2 mph N/A   Overcast
11:53 AM 78.1 °F - 66.0 °F 66% 30.03 in 10.0 mi South 19.6 mph 29.9 mph N/A   Overcast
12:04 PM 78.8 °F - 64.4 °F 61% 30.04 in 10.0 mi South 17.3 mph 32.2 mph N/A   Mostly Cloudy
12:53 PM 80.1 °F 81.9 °F 64.9 °F 60% 29.99 in 10.0 mi South 18.4 mph 27.6 mph N/A   Mostly Cloudy
1:53 PM 81.0 °F 81.9 °F 62.1 °F 52% 29.96 in 10.0 mi South 20.7 mph 28.8 mph N/A   Partly Cloudy
2:53 PM 82.0 °F 82.7 °F 61.0 °F 49% 29.94 in 10.0 mi South 20.7 mph 29.9 mph N/A   Scattered Clouds
3:53 PM 80.1 °F 80.9 °F 60.1 °F 50% 29.93 in 10.0 mi South 18.4 mph 28.8 mph N/A   Mostly Cloudy
4:53 PM 78.1 °F - 62.1 °F 58% 29.92 in 10.0 mi South 20.7 mph 31.1 mph N/A   Mostly Cloudy
5:53 PM 75.0 °F - 63.0 °F 66% 29.92 in 10.0 mi South 13.8 mph 24.2 mph N/A   Overcast
6:53 PM 73.9 °F - 63.0 °F 68% 29.93 in 10.0 mi South 17.3 mph 25.3 mph N/A   Partly Cloudy
7:53 PM 73.0 °F - 64.0 °F 73% 29.94 in 10.0 mi South 13.8 mph 23.0 mph N/A   Overcast
8:53 PM 73.0 °F - 64.9 °F 76% 29.94 in 10.0 mi South 18.4 mph 27.6 mph N/A   Overcast
9:53 PM 73.0 °F - 64.9 °F 76% 29.94 in 10.0 mi South 17.3 mph 23.0 mph N/A   Overcast
10:53 PM 73.0 °F - 66.0 °F 79% 29.93 in 10.0 mi South 13.8 mph - N/A   Overcast
11:53 PM 70.0 °F - 68.0 °F 93% 29.91 in 7.0 mi South 17.3 mph - 0.00 in Rain Light Rain